Year,Month,Day,Hour,Minute,Value (Times are PST for temperature in C)
2009,02,11,08,26,-1.40
2009,02,11,08,27,-1.30
2009,02,11,08,28,-1.30
2009,02,11,08,29,-1.30
2009,02,11,08,30,-1.30
2009,02,11,08,31,-1.30
2009,02,11,08,32,-1.30
2009,02,11,08,33,-1.30
2009,02,11,08,34,-1.30
2009,02,11,08,35,-1.30
2009,02,11,08,36,-1.30
2009,02,11,08,37,-1.30
2009,02,11,08,38,-1.30
2009,02,11,08,39,-1.30
2009,02,11,08,40,-1.30
2009,02,11,08,41,-1.20
2009,02,11,08,42,-1.20
2009,02,11,08,43,-1.20
2009,02,11,08,44,-1.10
2009,02,11,08,45,-1.10
2009,02,11,08,46,-1.10
2009,02,11,08,47,-1.10
2009,02,11,08,48,-1.10
2009,02,11,08,49,-1.00
2009,02,11,08,50,-1.00
2009,02,11,08,51,-1.00
2009,02,11,08,52,-0.90
2009,02,11,08,53,-0.90
2009,02,11,08,54,-0.90
2009,02,11,08,55,-0.80
2009,02,11,08,56,-0.80
2009,02,11,08,57,-0.70
2009,02,11,08,58,-0.70
2009,02,11,08,59,-0.70
2009,02,11,09,00,-0.70
2009,02,11,09,01,-0.60
2009,02,11,09,02,-0.60
2009,02,11,09,03,-0.60
2009,02,11,09,04,-0.50
2009,02,11,09,05,-0.50
2009,02,11,09,06,-0.50
2009,02,11,09,07,-0.40
2009,02,11,09,08,-0.40
2009,02,11,09,09,-0.40
2009,02,11,09,10,-0.40
2009,02,11,09,11,-0.40
2009,02,11,09,12,-0.40
2009,02,11,09,13,-0.30
2009,02,11,09,14,-0.30
2009,02,11,09,15,-0.30
2009,02,11,09,16,-0.20
2009,02,11,09,17,-0.20
2009,02,11,09,18,-0.10
2009,02,11,09,19,-0.10
2009,02,11,09,20,0.00
2009,02,11,09,21,0.00
2009,02,11,09,22,0.10
2009,02,11,09,23,0.10
2009,02,11,09,24,0.10
2009,02,11,09,25,0.20
2009,02,11,09,26,0.20
2009,02,11,09,27,0.20
2009,02,11,09,28,0.30
2009,02,11,09,29,0.30
2009,02,11,09,30,0.30
2009,02,11,09,31,0.40
2009,02,11,09,32,0.40
2009,02,11,09,33,0.40
2009,02,11,09,34,0.40
2009,02,11,09,35,0.40
2009,02,11,09,36,0.40
2009,02,11,09,37,0.40
2009,02,11,09,38,0.40
2009,02,11,09,39,0.40
2009,02,11,09,40,0.40
2009,02,11,09,41,0.50
2009,02,11,09,42,0.50
2009,02,11,09,43,0.50
2009,02,11,09,44,0.60
2009,02,11,09,45,0.60
2009,02,11,09,46,0.60
2009,02,11,09,47,0.60
2009,02,11,09,48,0.60
2009,02,11,09,49,0.60
2009,02,11,09,50,0.60
2009,02,11,09,51,0.60
2009,02,11,09,52,0.60
2009,02,11,09,53,0.50
2009,02,11,09,54,0.50
2009,02,11,09,55,0.50
2009,02,11,09,56,0.50
2009,02,11,09,57,0.60
2009,02,11,09,58,0.60
2009,02,11,09,59,0.60
2009,02,11,10,00,0.70
2009,02,11,10,01,0.70
2009,02,11,10,02,0.70
2009,02,11,10,03,0.70
2009,02,11,10,04,0.80
2009,02,11,10,05,0.80
2009,02,11,10,06,0.80
2009,02,11,10,07,0.80
2009,02,11,10,08,0.80
2009,02,11,10,09,0.80
2009,02,11,10,10,0.90
2009,02,11,10,11,0.90
2009,02,11,10,12,1.00
2009,02,11,10,13,1.00
2009,02,11,10,14,1.00
2009,02,11,10,15,1.00
2009,02,11,10,16,1.00
2009,02,11,10,17,1.10
2009,02,11,10,18,1.10
2009,02,11,10,19,1.10
2009,02,11,10,20,1.10
2009,02,11,10,21,1.10
2009,02,11,10,22,1.10
2009,02,11,10,23,1.10
2009,02,11,10,24,1.10
2009,02,11,10,25,1.10
2009,02,11,10,26,1.10
2009,02,11,10,27,1.20
2009,02,11,10,28,1.20
2009,02,11,10,29,1.20
2009,02,11,10,30,1.20
2009,02,11,10,31,1.20
2009,02,11,10,32,1.20
2009,02,11,10,33,1.20
2009,02,11,10,34,1.20
2009,02,11,10,35,1.20
2009,02,11,10,36,1.30
2009,02,11,10,37,1.30
2009,02,11,10,38,1.30
2009,02,11,10,39,1.30
2009,02,11,10,40,1.30
2009,02,11,10,41,1.30
2009,02,11,10,42,1.30
2009,02,11,10,43,1.40
2009,02,11,10,44,1.50
2009,02,11,10,45,1.60
2009,02,11,10,46,1.70
2009,02,11,10,47,1.70
2009,02,11,10,48,1.70
2009,02,11,10,49,1.70
2009,02,11,10,50,1.80
2009,02,11,10,51,1.80
2009,02,11,10,52,1.80
2009,02,11,10,53,1.80
2009,02,11,10,54,1.80
2009,02,11,10,55,1.80
2009,02,11,10,56,1.80
2009,02,11,10,57,1.80
2009,02,11,10,58,1.80
2009,02,11,10,59,1.80
2009,02,11,11,00,1.80
2009,02,11,11,01,1.90
2009,02,11,11,02,1.90
2009,02,11,11,03,2.00
2009,02,11,11,04,2.10
2009,02,11,11,05,2.20
2009,02,11,11,06,2.20
2009,02,11,11,07,2.20
2009,02,11,11,08,2.20
2009,02,11,11,09,2.20
2009,02,11,11,10,2.10
2009,02,11,11,11,2.10
2009,02,11,11,12,2.00
2009,02,11,11,13,1.90
2009,02,11,11,14,1.90
2009,02,11,11,15,1.90
2009,02,11,11,16,1.90
2009,02,11,11,17,1.90
2009,02,11,11,18,1.90
2009,02,11,11,19,2.00
2009,02,11,11,20,2.00
2009,02,11,11,21,2.00
2009,02,11,11,22,2.10
2009,02,11,11,23,2.10
2009,02,11,11,24,2.10
2009,02,11,11,25,2.20
2009,02,11,11,26,2.30
2009,02,11,11,27,2.40
2009,02,11,11,28,2.60
2009,02,11,11,29,2.70
2009,02,11,11,30,2.70
2009,02,11,11,31,2.70
2009,02,11,11,32,2.70
2009,02,11,11,33,2.60
2009,02,11,11,34,2.60
2009,02,11,11,35,2.60
2009,02,11,11,36,2.60
2009,02,11,11,37,2.60
2009,02,11,11,38,2.60
2009,02,11,11,39,2.60
2009,02,11,11,40,2.60
2009,02,11,11,41,2.70
2009,02,11,11,42,2.70
2009,02,11,11,43,2.70
2009,02,11,11,44,2.70
2009,02,11,11,45,2.70
2009,02,11,11,46,2.70
2009,02,11,11,47,2.70
2009,02,11,11,48,2.70
2009,02,11,11,49,2.70
2009,02,11,11,50,2.70
2009,02,11,11,51,2.80
2009,02,11,11,52,2.80
2009,02,11,11,53,2.80
2009,02,11,11,54,2.80
2009,02,11,11,55,2.80
2009,02,11,11,56,2.80
2009,02,11,11,57,2.80
2009,02,11,11,58,2.80
2009,02,11,11,59,2.80
2009,02,11,12,00,2.80
2009,02,11,12,01,2.90
2009,02,11,12,02,3.00
2009,02,11,12,03,3.00
2009,02,11,12,04,3.10
2009,02,11,12,05,3.20
2009,02,11,12,06,3.20
2009,02,11,12,07,3.30
2009,02,11,12,08,3.30
2009,02,11,12,09,3.30
2009,02,11,12,10,3.30
2009,02,11,12,11,3.30
2009,02,11,12,12,3.30
2009,02,11,12,13,3.40
2009,02,11,12,14,3.50
2009,02,11,12,15,3.60
2009,02,11,12,16,3.70
2009,02,11,12,17,3.80
2009,02,11,12,18,3.80
2009,02,11,12,19,3.80
2009,02,11,12,20,3.80
2009,02,11,12,21,3.80
2009,02,11,12,22,3.80
2009,02,11,12,23,3.90
2009,02,11,12,24,3.90
2009,02,11,12,25,3.90
2009,02,11,12,26,3.90
2009,02,11,12,27,3.80
2009,02,11,12,28,3.70
2009,02,11,12,29,3.70
2009,02,11,12,30,3.60
2009,02,11,12,31,3.50
2009,02,11,12,32,3.40
2009,02,11,12,33,3.40
2009,02,11,12,34,3.40
2009,02,11,12,35,3.40
2009,02,11,12,36,3.40
2009,02,11,12,37,3.40
2009,02,11,12,38,3.40
2009,02,11,12,39,3.40
2009,02,11,12,40,3.50
2009,02,11,12,41,3.60
2009,02,11,12,42,3.70
2009,02,11,12,43,3.70
2009,02,11,12,44,3.70
2009,02,11,12,45,3.80
2009,02,11,12,46,3.70
2009,02,11,12,47,3.70
2009,02,11,12,48,3.70
2009,02,11,12,49,3.70
2009,02,11,12,50,3.70
2009,02,11,12,51,3.70
2009,02,11,12,52,3.70
2009,02,11,12,53,3.70
2009,02,11,12,54,3.70
2009,02,11,12,55,3.70
2009,02,11,12,56,3.70
2009,02,11,12,57,3.70
2009,02,11,12,58,3.70
2009,02,11,12,59,3.70
2009,02,11,13,00,3.70
2009,02,11,13,01,3.80
2009,02,11,13,02,3.80
2009,02,11,13,03,3.90
2009,02,11,13,04,4.00
2009,02,11,13,05,4.10
2009,02,11,13,06,4.30
2009,02,11,13,07,4.30
2009,02,11,13,08,4.30
2009,02,11,13,09,4.30
2009,02,11,13,10,4.30
2009,02,11,13,11,4.40
2009,02,11,13,12,4.40
2009,02,11,13,13,4.40
2009,02,11,13,14,4.40
2009,02,11,13,15,4.40
2009,02,11,13,16,4.40
2009,02,11,13,17,4.50
2009,02,11,13,18,4.60
2009,02,11,13,19,4.50
2009,02,11,13,20,4.30
2009,02,11,13,21,4.20
2009,02,11,13,22,4.20
2009,02,11,13,23,4.10
2009,02,11,13,24,4.10
2009,02,11,13,25,4.10
2009,02,11,13,26,4.20
2009,02,11,13,27,4.20
2009,02,11,13,28,4.30
2009,02,11,13,29,4.40
2009,02,11,13,30,4.50
2009,02,11,13,31,4.50
2009,02,11,13,32,4.50
2009,02,11,13,33,4.50
2009,02,11,13,34,4.50
2009,02,11,13,35,4.60
2009,02,11,13,36,4.60
2009,02,11,13,37,4.70
2009,02,11,13,38,4.70
2009,02,11,13,39,4.70
2009,02,11,13,40,4.70
2009,02,11,13,41,4.70
2009,02,11,13,42,4.70
2009,02,11,13,43,4.60
2009,02,11,13,44,4.50
2009,02,11,13,45,4.50
2009,02,11,13,46,4.60
2009,02,11,13,47,4.60
2009,02,11,13,48,4.60
2009,02,11,13,49,4.60
2009,02,11,13,50,4.50
2009,02,11,13,51,4.40
2009,02,11,13,52,4.40
2009,02,11,13,53,4.30
2009,02,11,13,54,4.30
2009,02,11,13,55,4.30
2009,02,11,13,56,4.20
2009,02,11,13,57,4.30
2009,02,11,13,58,4.30
2009,02,11,13,59,4.30
2009,02,11,14,00,4.30
2009,02,11,14,01,4.30
2009,02,11,14,02,4.30
2009,02,11,14,03,4.40
2009,02,11,14,04,4.40
2009,02,11,14,05,4.40
2009,02,11,14,06,4.40
2009,02,11,14,07,4.40
2009,02,11,14,08,4.40
2009,02,11,14,09,4.40
2009,02,11,14,10,4.40
2009,02,11,14,11,4.40
2009,02,11,14,12,4.40
2009,02,11,14,13,4.50
2009,02,11,14,14,4.60
2009,02,11,14,15,4.60
2009,02,11,14,16,4.60
2009,02,11,14,17,4.50
2009,02,11,14,18,4.50
2009,02,11,14,19,4.40
2009,02,11,14,20,4.50
2009,02,11,14,21,4.60
2009,02,11,14,22,4.60
2009,02,11,14,23,4.70
2009,02,11,14,24,4.70
2009,02,11,14,25,4.80
2009,02,11,14,26,4.80
2009,02,11,14,27,4.70
2009,02,11,14,28,4.70
2009,02,11,14,29,4.70
2009,02,11,14,30,4.80
2009,02,11,14,31,4.80
2009,02,11,14,32,4.90
2009,02,11,14,33,4.90
2009,02,11,14,34,4.80
2009,02,11,14,35,4.80
2009,02,11,14,36,4.90
2009,02,11,14,37,4.90
2009,02,11,14,38,4.90
2009,02,11,14,39,4.90
2009,02,11,14,40,5.00
2009,02,11,14,41,5.00
2009,02,11,14,42,5.10
2009,02,11,14,43,5.10
2009,02,11,14,44,5.10
2009,02,11,14,45,5.10
2009,02,11,14,46,5.10
2009,02,11,14,47,5.10
2009,02,11,14,48,5.00
2009,02,11,14,49,5.00
2009,02,11,14,50,5.00
2009,02,11,14,51,5.00
2009,02,11,14,52,5.10
2009,02,11,14,53,5.00
2009,02,11,14,54,5.00
2009,02,11,14,55,4.90
2009,02,11,14,56,4.90
2009,02,11,14,57,4.80
2009,02,11,14,58,4.80
2009,02,11,14,59,4.70
2009,02,11,15,00,4.70
2009,02,11,15,01,4.60
2009,02,11,15,02,4.60
2009,02,11,15,03,4.70
2009,02,11,15,04,4.70
2009,02,11,15,05,4.60
2009,02,11,15,06,4.60
2009,02,11,15,07,4.70
2009,02,11,15,08,4.70
2009,02,11,15,09,4.60
2009,02,11,15,10,4.60
2009,02,11,15,11,4.60
2009,02,11,15,12,4.60
2009,02,11,15,13,4.60
2009,02,11,15,14,4.60
2009,02,11,15,15,4.50
2009,02,11,15,16,4.50
2009,02,11,15,17,4.40
2009,02,11,15,18,4.40
2009,02,11,15,19,4.40
2009,02,11,15,20,4.30
2009,02,11,15,21,4.40
2009,02,11,15,22,4.40
2009,02,11,15,23,4.40
2009,02,11,15,24,4.40
2009,02,11,15,25,4.40
2009,02,11,15,26,4.40
2009,02,11,15,27,4.40
2009,02,11,15,28,4.50
2009,02,11,15,29,4.50
2009,02,11,15,30,4.50
2009,02,11,15,31,4.50
2009,02,11,15,32,4.50
2009,02,11,15,33,4.50
2009,02,11,15,34,4.50
2009,02,11,15,35,4.50
2009,02,11,15,36,4.50
2009,02,11,15,37,4.40
2009,02,11,15,38,4.40
2009,02,11,15,39,4.40
2009,02,11,15,40,4.40
2009,02,11,15,41,4.40
2009,02,11,15,42,4.40
2009,02,11,15,43,4.30
2009,02,11,15,44,4.30
2009,02,11,15,45,4.30
2009,02,11,15,46,4.30
2009,02,11,15,47,4.30
2009,02,11,15,48,4.30
2009,02,11,15,49,4.20
2009,02,11,15,50,4.20
2009,02,11,15,51,4.20
2009,02,11,15,52,4.20
2009,02,11,15,53,4.20
2009,02,11,15,54,4.20
2009,02,11,15,55,4.20
2009,02,11,15,56,4.20
2009,02,11,15,57,4.20
2009,02,11,15,58,4.10
2009,02,11,15,59,4.10
2009,02,11,16,00,4.10
2009,02,11,16,01,4.10
2009,02,11,16,02,4.10
2009,02,11,16,03,4.10
2009,02,11,16,04,4.10
2009,02,11,16,05,4.10
2009,02,11,16,06,4.10
2009,02,11,16,07,4.10
2009,02,11,16,08,4.10
2009,02,11,16,09,4.10
2009,02,11,16,10,4.10
2009,02,11,16,11,4.10
2009,02,11,16,12,4.10
2009,02,11,16,13,4.10
2009,02,11,16,14,4.10
2009,02,11,16,15,4.10
2009,02,11,16,16,4.10
2009,02,11,16,17,4.10
2009,02,11,16,18,4.10
